HB9UQS-13 Weather Reports


Display with metric or nautical units.
time (UTC)temp
F
wind
direction
speed
MPH
gust
MPH
rain 1hr
in
rain 24hr
in
rain mn
in
humidity
%
barometer
mb
20260505163730 56 272 2.0 5.0 0.00 0.00 0.00 81 924.4
20260505160730 53 243 1.0 3.0 0.00 0.00 0.00 85 924.2
20260505150730 55 293 5.0 11.0 0.00 0.00 0.00 87 924.2
20260505123730 55 280 3.0 7.0 0.00 0.00 0.00 84 924.2
20260505120730 55 305 4.0 6.0 0.00 0.00 0.00 87 924.1
20260505113730 55 296 4.0 8.0 0.00 0.00 0.00 85 924.2
20260505110730 54 261 2.0 5.0 0.00 0.00 0.00 91 924.2
20260505100730 53 287 3.0 6.0 0.00 0.00 0.00 93 924.1
20260505093729 52 328 2.0 5.0 0.00 0.00 0.00 94 924.1
20260505090730 52 289 2.0 4.0 0.00 0.00 0.00 91 924.1
20260505083730 53 146 0.0 2.0 0.00 0.00 0.00 90 923.9
20260505080730 53 199 0.0 1.0 0.00 0.00 0.00 93 924.1
20260505073729 51 113 0.0 2.0 0.00 0.00 0.00 94 924.3
20260505070730 50 257 2.0 6.0 0.00 0.00 0.00 96 924.7
20260505063729 49 276 3.0 8.0 0.00 0.00 0.00 96 924.9
20260505060730 48 289 3.0 6.0 0.00 0.00 0.00 96 925.1
20260505053729 48 290 4.0 8.0 0.00 0.00 0.00 97 925.2
20260505050730 48 281 4.0 10.0 0.00 0.00 0.00 97 925.0
20260505040729 47 93 1.0 2.0 0.00 0.00 0.00 97 925.1
20260505033729 47 142 0.0 1.0 0.00 0.00 0.00 97 925.2
20260505030730 47 238 0.0 0.0 0.00 0.00 0.00 97 925.2
20260505023730 47 264 1.0 2.0 0.00 0.00 0.00 97 925.6
20260505020730 46 280 0.0 0.0 0.00 0.00 0.00 97 925.6
20260505013730 46 243 1.0 2.0 0.00 0.00 0.00 97 925.9
20260505010730 45 315 0.0 1.0 0.00 0.00 0.00 97 925.9
20260505003729 46 290 0.0 2.0 0.00 0.00 0.00 97 926.4
20260505000729 45 155 0.0 1.0 0.00 0.00 0.00 97 926.7
20260504233730 46 306 1.0 4.0 0.00 0.00 0.00 96 927.0
20260504230730 44 19 0.0 0.0 0.00 0.00 0.00 96 927.4
20260504223729 43 50 0.0 1.0 0.00 0.00 0.00 95 927.5
20260504220730 42 198 1.0 3.0 0.00 0.00 0.00 95 927.6
20260504213730 41 176 0.0 0.0 0.00 0.00 0.00 94 927.8
20260504210729 43 122 1.0 2.0 0.00 0.00 0.00 94 928.0
20260504203729 45 288 1.0 2.0 0.00 0.00 0.00 93 928.3
20260504200729 48 129 0.0 0.0 0.00 0.00 0.00 92 928.3
20260504193730 49 224 0.0 0.0 0.00 0.00 0.00 90 928.3
20260504190729 50 196 0.0 1.0 0.00 0.00 0.00 88 928.3
20260504183730 50 268 1.0 2.0 0.00 0.00 0.00 87 928.2
20260504180729 51 277 2.0 4.0 0.00 0.00 0.00 87 928.3
20260504173730 51 285 2.0 6.0 0.00 0.00 0.00 88 928.5
20260504170729 51 288 3.0 6.0 0.00 0.00 0.00 89 928.7